Погода в Зосени

Погода в Зосени : погода сейчас, прогноз погоды и архив. Всё, что Вы хотите узнать о погоде в Зосени!

Поиск расширенной информации на нашем сайте:

Другие новости

Новости СМИ2

Главная страница сайта

Новости сайта

03.07.2017

Напоминаем, что на нашем специализированном сайте Метеоцентр.Азия вы можете получить высокодетализированные автоматические прогнозы погоды по пунктам России, СНГ и мира в авиационном формате (включающие направление и скорость ветра, видимость, явления погоды, количество и форму облачности, нижнюю и верхнюю границу облачности).


Погода в Зосени - сегодня

Время (UTC), дата Ветер
(°,м/с) 
Видим.   Явления Облачность Т
(°С)
Тd
(°С)
f(%) Тe
(°С)
Pmin
(гПа)
dP
(гПа)
Po
(мм)
O2
(г/м3)
Тmin Tmax R s Состояние
почвы
06 25.08.18 230 (ЮЗ) н/о    н/о 
+17.2 +16.8 97 +31  1007  0.5  739  276  +17         
09 25.08.18 270 (З) н/о    н/о 
+18 +16.9 93 +32  1007.3  0.4  740  275           
12 25.08.18 тихо ()   н/о    н/о 
+16.4 +14.7 90 +25  1008  0.5  739  278           
15 25.08.18 тихо ()   н/о    н/о 
+15.9 +15.4 97 +26  1008.3  0.3  740  278           
18 25.08.18 010 (С) н/о    н/о 
+13 +11.8 92 +18  1009.5  0.9  741  282    +18.1       
21 25.08.18 тихо ()   н/о    н/о 
+11.8 +11.3 97 +15  1010  0.4  741  283           
00 26.08.18 тихо ()   н/о    н/о 
+11 +10.6 97 +13  1010.6  0.5  741  285           
03 26.08.18 тихо ()   н/о    н/о 
+8.5 +8.3 99 +9  1011.3  0.5  742  288           
06 26.08.18 230 (ЮЗ) н/о    н/о 
+13.2 +13 99 +20  1011.6  0.7  743  282  +8         
09 26.08.18 190 (Ю) н/о    н/о 
+17.3 +11.9 71 +22  1011.5  0.2  743  279           
15 26.08.18 210 (ЮЗ) н/о    н/о 
+14.6 +12.9 90 +22  1012.6  0.4  743  281           
18 26.08.18 250 (З) н/о    н/о 
+12.9 +12.2 96 +17  1013.3  0.5  744  283    +18       
21 26.08.18 230 (ЮЗ) н/о    н/о 
+12 +11.6 97 +17  1014.2  0.8  744  284           
00 27.08.18 250 (З) н/о    н/о 
+11.5 +11.1 97 +15  1014.6  0.4  744  286           
03 27.08.18 тихо ()   н/о    н/о 
+10.1 +9.7 97 +11  1015.3  0.5  745  287           
06 27.08.18 200 (Ю) н/о    н/о 
+11.5 +11.3 99 +16  1016.1  0.9  746  286  +8.8         
15 05.09.18 070 (В) н/о    н/о 
+20.9 +15.4 71 +30  1018.2  0.2  748  276           
18 05.09.18 тихо ()   н/о    н/о 
+17 +15.4 90 +27  1018.9  0.4  748  280    +22.6       
09 06.09.18 120 (ЮВ) н/о    н/о 
+23 +14.2 58 +30  1017.7  748  274           
21 06.09.18 тихо ()   н/о    н/о 
+10.5 +9.8 95 +12  1017.9  0.1  747  287           
15 07.09.18 160 (Ю) н/о    н/о 
+24.4 +7.4 34 +24  1016.5  -0.4  747  274           
15 10.09.18 тихо ()   н/о    н/о 
+17.2 +13.3 78 +23  1021.2  -0.5  750  281           
18 10.09.18 140 (ЮВ) 1{10}  н/о    н/о 
+13.1 +11.8 92 +18  1022.3  0.7  750  285    +21.7       
00 14.09.18 250 (З) н/о    н/о 
+8.8 +7 88 +9  1018.4  0.3  747  290           
00 15.09.18 210 (ЮЗ) н/о    н/о 
+6.9 +5.9 93 +8  1019.8  0.1  747  293           
Время (UTC), дата Ветер
(°,м/с) 
Видим.   Явления Облачность Т
(°С)
Тd
(°С)
f(%) Тe
(°С)
Pmin
(гПа)
dP
(гПа)
Po
(мм)
O2
(г/м3)
Тmin Tmax R s Состояние
почвы

Для получения пояснительной информации подведите курсор к названию столбца.

ПОГОДА в Зосени - архив

Всё, что Вы хотите узнать о погоде в Зосени - удобно и подробно!

Выберите нужную дату (начиная с 1 января 2015* года) и нажмите кнопку "Найти".
Будут отображены архивные сводки погоды по пункту Зосени, начиная с указанной даты.


Отображать данные в формате CSV (для использования в таблицах Excel)


Внимание! Наш архив погоды предназначен исключительно для личного некоммерческого использования в познавательных целях. Если Вам необходимы официальные справки о состоянии погоды (для производственных, юридических, коммерческих и т.п. целей), обращайтесь в органы Росгидромета.

*Примечание: данная дата относится к архиву по метеостанциям СССР (Россия, СНГ, Балтия).
Архив по метеостанциям Зарубежной Европы и Азии (кроме Китая) хранится 10 дней, по другим регионам земного шара (Китай, Африка, Америка, Австралия, Океания) - 1 день.

Зосени - район местоположения метеостанции


Название, широта, долгота, высота метеостанции:
Зосени 57.1°ш. 25.9°д. 180 м над ур. моря [Латвия]

Дополнительная информация

В oтличие oт бoльшинства пoгoдных сайтoв мы публикуем пoдрoбную метеoинфoрмацию в детальнoм прoфессиoнальнoм фoрмате.

Характеристики температуры и влажнoсти вoздуха измеряются на высoте 2 м в тени вдали oт зданий и деревьев.
Скoрoсть ветра измеряется на высoте 10 м (на урoвне рoста челoвека скoрoсть ветра ниже в 1.5-2 раза). Если метеoстанция нахoдится в гoрoде или в лесу, тo скoрoсть ветра занижена на 2-4 м/с пo сравнению с oткрытым местoм. Скoрoсть ветра над акватoриями крупных рек и oзёр, а также на вершинах хoлмoв на 2-5 м/с выше, чем в oбычных услoвиях.
Атмoсфернoе давление в разных тoчках местнoсти мoжет значительнo oтличаться oт давления на метеoстанции, в зависимoсти oт услoвий рельефа (при пoдъёме на 10 м давление пoнижается примернo на 1 мм рт.ст.).